Weather History for KPSX - July, 2013

Change the Weather History Date:

Friday, July 5, 2013

  Actual Average Record
Temperature  
Mean Temperature 80 °F -  
Max Temperature 93 °F 89 °F 97 °F (2005)
Min Temperature 70 °F 76 °F 66 °F (1985)
Cooling Degree Days 16    
Growing Degree Days 30 (Base 50)    
Moisture  
Dew Point 69 °F    
Average Humidity 67    
Maximum Humidity 90    
Minimum Humidity 41    
Precipitation  
Precipitation 0.00 in - - ()
Sea Level Pressure  
Sea Level Pressure 29.92 in    
Wind  
Wind Speed 6 mph (ESE)    
Max Wind Speed 18 mph    
Max Gust Speed 24 mph    
Visibility 9 miles    
Events      
Averages and records for this station are not official NWS values.
T = Trace of Precipitation, MM = Missing Value Source: NWS Daily Summary

Daily Weather History Graph

Daily Weather History Graph

Search for Another Location

Airport or City:

Trip Planner

Search our weather history database for the weather conditions in past years. The results will help you decide how hot, cold, wet, or windy it might be!

Date:

Astronomy

Jul. 05, 2013 Rise Set
Actual Time 6:32 AM CDT 8:26 PM CDT
Civil Twilight 6:05 AM CDT 8:53 PM CDT
Nautical Twilight 5:33 AM CDT 9:26 PM CDT
Astronomical Twilight 4:58 AM CDT 10:00 PM CDT
Moon 4:28 AM CDT 6:26 PM CDT
Length of Visible Light 14h 48m
Length of Day
13h 54m
Waning Crescent, 6% of the Moon is Illuminated
Jul 5
Waning Crescent
Jul 8
New
Jul 15
First Quarter
Jul 22
Full
Jul 29
Last Quarter

Hourly Weather History & Observations

Time (CDT) Temp. Heat Index Dew Point Humidity Pressure Visibility Wind Dir Wind Speed Gust Speed Precip Events Conditions
12:53 AM 78.1 °F - 70.0 °F 76% 29.95 in 10.0 mi SE 3.5 mph - N/A   Clear
1:53 AM 73.0 °F - 68.0 °F 84% 29.95 in 9.0 mi Calm Calm - N/A   Clear
2:53 AM 72.0 °F - 68.0 °F 87% 29.95 in 8.0 mi NNE 3.5 mph - N/A   Clear
3:53 AM 72.0 °F - 68.0 °F 87% 29.93 in 9.0 mi Calm Calm - N/A   Clear
4:53 AM 70.0 °F - 66.9 °F 90% 29.93 in 7.0 mi NE 4.6 mph - N/A   Clear
5:53 AM 70.0 °F - 66.9 °F 90% 29.93 in 7.0 mi NE 4.6 mph - N/A   Clear
6:53 AM 71.1 °F - 68.0 °F 90% 29.94 in 6.0 mi Calm Calm - N/A   Clear
7:53 AM 75.9 °F - 72.0 °F 87% 29.95 in 7.0 mi NE 5.8 mph - N/A   Clear
8:53 AM 82.9 °F 88.8 °F 73.0 °F 72% 29.96 in 10.0 mi NE 5.8 mph - N/A   Clear
10:53 AM 89.1 °F 93.7 °F 69.1 °F 52% 29.96 in 10.0 mi Variable 5.8 mph - N/A   Scattered Clouds
11:53 AM 90.0 °F 93.6 °F 68.0 °F 48% 29.95 in 10.0 mi East 8.1 mph - N/A   Partly Cloudy
12:53 PM 91.0 °F 95.6 °F 69.1 °F 48% 29.94 in 10.0 mi SSE 9.2 mph 18.4 mph N/A   Partly Cloudy
1:53 PM 91.0 °F 95.6 °F 69.1 °F 48% 29.93 in 10.0 mi SSE 13.8 mph 19.6 mph N/A   Clear
2:53 PM 91.0 °F 96.6 °F 70.0 °F 50% 29.92 in 10.0 mi SSE 18.4 mph 24.2 mph N/A   Clear
3:53 PM 91.9 °F 95.9 °F 68.0 °F 45% 29.89 in 10.0 mi SE 16.1 mph 23.0 mph N/A   Clear
4:53 PM 91.0 °F 92.6 °F 64.0 °F 41% 29.88 in 10.0 mi SSE 16.1 mph - N/A   Clear
5:04 PM 91.4 °F 93.2 °F 64.4 °F 41% 29.88 in 10.0 mi SE 17.3 mph 23.0 mph N/A   Partly Cloudy
6:53 PM 88.0 °F 92.1 °F 69.1 °F 53% 29.86 in 10.0 mi ESE 13.8 mph - N/A   Clear
7:53 PM 86.0 °F 90.1 °F 69.1 °F 57% 29.87 in 10.0 mi ESE 13.8 mph - N/A   Clear
8:53 PM 82.9 °F 88.0 °F 72.0 °F 69% 29.88 in 10.0 mi ESE 11.5 mph - N/A   Clear
9:53 PM 82.0 °F 87.9 °F 73.9 °F 76% 29.89 in 10.0 mi ESE 9.2 mph - N/A   Clear
10:53 PM 82.0 °F 87.4 °F 73.0 °F 74% 29.91 in 10.0 mi ESE 8.1 mph - N/A   Clear
11:53 PM 82.0 °F 87.4 °F 73.0 °F 74% 29.91 in 10.0 mi ESE 8.1 mph - N/A   Clear